Flag for U.S.A. Weather past 2 weeks in Port St. Lucie, Florida, U.S.A.

Now
84 °F

Scattered clouds.


Feels Like: 90 °F
Forecast: 76 / 88 °F
Wind: 14 mph from East

Location: Witham Field Airport

Current Time: May 25, 2015 at 6:12:59 PM

Latest Report: May 25, 2015 at 4:50 PM


Visibility: 7 mi

Pressure: 30.16 "Hg

Humidity: 66%

Dew point: 72 °F

Location of Port St. LucieLocation

Historic Weather in Port St. Lucie — Graph

°F

Port St. Lucie temperature yesterday

Maximum temperature yesterday: 84 °F (at 1:47 PM)
Minimum temperature yesterday: 73 °F (at 1:35 AM)
Average temperature yesterday: 78 °F

Past Weeks' High & Low Weather Summary

 TemperatureHumidityPressure
High86 °F (May 20, 3:47 PM)100% (May 11, 5:15 AM)30.24 "Hg (May 11, 5:15 AM)
Low68 °F (May 19, 5:55 AM)54% (May 19, 11:50 AM)29.94 "Hg (May 20, 6:47 PM)
Average77 °F77%30.13 "Hg
* Reported May 10 5:47 PM — May 25 4:50 PM, Port St. Lucie, Weather by CustomWeather, © 2015

Note: Actual official high and low records may vary slightly from our data, if they occured in-between our weather recording intervals... More about our weather records

Advertising

Port St. Lucie weather history for previous 24 hours

 ConditionsComfort  
Time TempWeatherWind HumidityBarometerVisibility
4:50 PM
Mon, May 25
84 °FScattered clouds.14 mph66%30.16 "Hg7 mi
3:47 PM84 °FScattered clouds.N/A66%30.17 "Hg7 mi
2:47 PM84 °FScattered clouds.N/A66%30.18 "Hg7 mi
1:47 PM84 °FScattered clouds.N/A66%30.20 "Hg7 mi
12:50 PM84 °FPartly sunny.16 mph66%30.20 "Hg7 mi
11:47 AM84 °FPartly sunny.6 mph66%30.21 "Hg7 mi
10:50 AM84 °FScattered clouds.15 mph66%30.21 "Hg7 mi
9:47 AM82 °FScattered clouds.9 mph70%30.21 "Hg7 mi
8:47 AM82 °FScattered clouds.9 mph70%30.20 "Hg7 mi
7:47 AM81 °FScattered clouds.9 mph74%30.18 "Hg7 mi
6:47 AM77 °FPassing clouds.9 mph83%30.17 "Hg7 mi
6:15 AM77 °FPassing clouds.8 mph79%30.16 "Hg10 mi
5:55 AM77 °FPassing clouds.7 mph79%30.16 "Hg10 mi
5:35 AM77 °FPassing clouds.7 mph79%30.15 "Hg10 mi
5:15 AM77 °FClear.7 mph83%30.15 "Hg10 mi
4:55 AM77 °FPassing clouds.8 mph79%30.15 "Hg10 mi
4:35 AM77 °FClear.8 mph79%30.15 "Hg10 mi
4:15 AM77 °FClear.9 mph79%30.15 "Hg10 mi
3:55 AM77 °FClear.8 mph79%30.15 "Hg10 mi
3:35 AM77 °FClear.8 mph79%30.15 "Hg10 mi
3:15 AM77 °FClear.7 mph79%30.15 "Hg10 mi
2:55 AM77 °FPartly cloudy.9 mph79%30.15 "Hg10 mi
2:35 AM79 °FPassing clouds.9 mph74%30.16 "Hg10 mi
2:15 AM79 °FClear.9 mph74%30.16 "Hg10 mi
1:55 AM79 °FPassing clouds.10 mph74%30.17 "Hg10 mi
1:35 AM79 °FClear.12 mph74%30.18 "Hg10 mi
1:15 AM79 °FPassing clouds.15 mph74%30.18 "Hg10 mi
12:55 AM79 °FPassing clouds.16 mph74%30.18 "Hg10 mi
12:35 AM79 °FPassing clouds.14 mph74%30.19 "Hg10 mi
11:55 PM
Sun, May 24
79 °FClear.15 mph74%30.20 "Hg10 mi
11:15 PM79 °FClear.15 mph70%30.20 "Hg10 mi
10:55 PM79 °FPassing clouds.13 mph70%30.20 "Hg10 mi
10:35 PM79 °FPassing clouds.12 mph70%30.19 "Hg10 mi
10:15 PM79 °FPassing clouds.14 mph70%30.19 "Hg10 mi
9:55 PM79 °FPassing clouds.14 mph70%30.19 "Hg10 mi
9:35 PM79 °FPassing clouds.13 mph74%30.18 "Hg10 mi
9:15 PM79 °FClear.14 mph70%30.18 "Hg10 mi
8:55 PM79 °FSunny.10 mph70%30.18 "Hg10 mi
8:35 PM79 °FSunny.16 mph74%30.17 "Hg10 mi
8:15 PM79 °FBroken clouds.14 mph74%30.16 "Hg10 mi
7:55 PM79 °FBroken clouds.10 mph79%30.16 "Hg10 mi
7:35 PM79 °FSunny.12 mph74%30.16 "Hg10 mi
7:15 PM79 °FSunny.9 mph79%30.15 "Hg10 mi
Weather by CustomWeather, © 2015

See weather overviewHow to use our weather pages